QPF
0.00 0.00 0.00 0.00 0.00 0.00 0.00 0.00 0.00 0.00 0.00 0.00 0.00 0.00 0.00 0.00 0.00 0.00 0.00 0.00 0.00 0.00 0.00 0.00 0.00 0.00 0.00 0.00 0.01 0.01 0.02 0.02 0.02 0.02 0.02 0.02 0.03 0.03 0.04 0.06 0.07 0.07 0.08
0.00 0.00 0.00 0.00 0.00 0.00 0.00 0.00 0.00 0.00 0.00 0.00 0.00 0.00 0.00 0.00 0.00 0.00 0.00 0.00 0.00 0.00 0.00 0.00 0.00 0.00 0.00 0.00 0.00 0.00 0.00 0.00 0.00 0.01 0.01 0.01 0.01 0.01 0.02 0.03 0.05 0.07 0.09
0.00 0.00 0.00 0.00 0.00 0.00 0.00 0.00 0.00 0.00 0.00 0.00 0.00 0.00 0.00 0.00 0.00 0.00 0.00 0.00 0.00 0.00 0.00 0.00 0.00 0.00 0.00 0.00 0.00 0.00 0.00 0.00 0.00 0.00 0.00 0.00 0.00 0.00 0.00 0.00 0.01 0.03 0.05
0.00 0.00 0.00 0.00 0.00 0.00 0.00 0.00 0.00 0.00 0.00 0.00 0.00 0.00 0.00 0.00 0.00 0.00 0.00 0.00 0.00 0.00 0.00 0.00 0.00 0.00 0.00 0.00 0.00 0.00 0.00 0.00 0.00 0.00 0.00 0.00 0.00 0.00 0.00 0.00 0.00 0.00 0.01
0.00 0.00 0.00 0.00 0.00 0.00 0.00 0.00 0.00 0.00 0.00 0.00 0.00 0.00 0.00 0.00 0.00 0.00 0.00 0.00 0.00 0.00 0.00 0.00 0.00 0.00 0.00 0.00 0.00 0.00 0.00 0.00 0.00 0.00 0.00 0.00 0.00 0.00 0.00 0.00 0.00 0.00 0.00
0.00 0.00 0.00 0.00 0.00 0.00 0.00 0.00 0.00 0.00 0.00 0.00 0.00 0.00 0.00 0.00 0.00 0.00 0.00 0.00 0.00 0.00 0.00 0.00 0.00 0.00 0.00 0.00 0.00 0.00 0.00 0.00 0.00 0.00 0.00 0.00 0.00 0.00 0.00 0.00 0.00 0.00 0.00
0.00 0.00 0.00 0.00 0.00 0.00 0.00 0.00 0.00 0.00 0.00 0.00 0.00 0.00 0.00 0.00 0.00 0.00 0.00 0.00 0.00 0.00 0.00 0.00 0.00 0.00 0.00 0.00 0.00 0.00 0.00 0.00 0.00 0.00 0.00 0.00 0.00 0.00 0.00 0.00 0.00 0.00 0.00
0.00 0.00 0.00 0.00 0.00 0.00 0.00 0.00 0.00 0.00 0.00 0.00 0.00 0.00 0.00 0.00 0.00 0.00 0.00 0.00 0.00 0.00 0.00 0.00 0.00 0.00 0.00 0.00 0.00 0.00 0.00 0.00 0.00 0.00 0.00 0.00 0.00 0.00 0.00 0.00 0.00 0.00 0.00
0.00 0.00 0.00 0.00 0.00 0.00 0.00 0.00 0.00 0.00 0.00 0.00 0.00 0.00 0.00 0.00 0.00 0.00 0.00 0.00 0.00 0.00 0.00 0.00 0.00 0.00 0.00 0.00 0.00 0.00 0.00 0.00 0.00 0.00 0.00 0.00 0.00 0.00 0.00 0.00 0.00 0.00 0.01
0.00 0.00 0.00 0.00 0.00 0.00 0.00 0.00 0.00 0.00 0.00 0.00 0.00 0.00 0.00 0.00 0.00 0.00 0.00 0.00 0.00 0.00 0.00 0.00 0.00 0.00 0.00 0.00 0.00 0.00 0.00 0.00 0.00 0.00 0.00 0.00 0.00 0.00 0.01 0.01 0.01 0.01 0.01
0.00 0.00 0.00 0.00 0.00 0.00 0.00 0.00 0.00 0.00 0.00 0.00 0.00 0.00 0.00 0.00 0.00 0.00 0.00 0.00 0.00 0.00 0.00 0.00 0.00 0.00 0.00 0.00 0.00 0.00 0.00 0.00 0.00 0.00 0.00 0.00 0.00 0.01 0.01 0.01 0.01 0.01 0.01
0.00 0.00 0.00 0.00 0.00 0.00 0.00 0.00 0.00 0.00 0.00 0.00 0.00 0.00 0.00 0.00 0.00 0.00 0.00 0.00 0.00 0.00 0.00 0.00 0.00 0.00 0.00 0.00 0.00 0.00 0.00 0.00 0.00 0.00 0.00 0.00 0.01 0.01 0.01 0.01 0.01 0.01 0.01
0.00 0.00 0.00 0.00 0.00 0.00 0.00 0.00 0.00 0.00 0.00 0.00 0.00 0.00 0.00 0.00 0.00 0.00 0.00 0.00 0.00 0.00 0.00 0.00 0.00 0.00 0.00 0.00 0.00 0.00 0.00 0.00 0.00 0.00 0.00 0.01 0.01 0.01 0.01 0.01 0.01 0.01 0.02
0.00 0.00 0.00 0.00 0.00 0.00 0.00 0.00 0.00 0.00 0.00 0.00 0.00 0.00 0.00 0.00 0.00 0.00 0.00 0.00 0.00 0.00 0.00 0.00 0.00 0.00 0.00 0.00 0.00 0.00 0.00 0.00 0.00 0.00 0.00 0.01 0.01 0.00 0.00 0.01 0.01 0.02 0.02
0.00 0.00 0.00 0.00 0.00 0.00 0.00 0.00 0.00 0.00 0.00 0.00 0.00 0.00 0.00 0.00 0.00 0.00 0.00 0.00 0.00 0.00 0.00 0.00 0.00 0.00 0.00 0.00 0.00 0.00 0.00 0.00 0.00 0.00 0.01 0.01 0.00 0.00 0.01 0.01 0.02 0.02 0.03
0.00 0.00 0.00 0.00 0.00 0.00 0.00 0.00 0.00 0.00 0.00 0.00 0.00 0.00 0.00 0.00 0.00 0.00 0.00 0.00 0.00 0.00 0.00 0.00 0.00 0.00 0.00 0.00 0.00 0.00 0.00 0.00 0.00 0.01 0.01 0.00 0.00 0.00 0.01 0.02 0.02 0.03 0.04
0.00 0.00 0.00 0.00 0.00 0.00 0.00 0.00 0.00 0.00 0.00 0.00 0.00 0.00 0.00 0.00 0.00 0.00 0.00 0.00 0.00 0.00 0.00 0.00 0.00 0.00 0.00 0.00 0.00 0.00 0.00 0.00 0.00 0.00 0.00 0.00 0.01 0.01 0.02 0.02 0.02 0.03 0.03
0.00 0.00 0.00 0.00 0.00 0.00 0.00 0.00 0.00 0.00 0.00 0.00 0.00 0.00 0.00 0.00 0.00 0.00 0.00 0.00 0.00 0.00 0.00 0.00 0.00 0.00 0.00 0.00 0.00 0.00 0.00 0.00 0.00 0.00 0.00 0.00 0.01 0.01 0.02 0.02 0.03 0.04 0.04
0.00 0.00 0.00 0.00 0.00 0.00 0.00 0.00 0.00 0.00 0.00 0.00 0.00 0.00 0.00 0.00 0.00 0.00 0.00 0.00 0.00 0.00 0.00 0.00 0.00 0.00 0.00 0.00 0.00 0.00 0.00 0.00 0.00 0.00 0.00 0.00 0.01 0.01 0.02 0.03 0.03 0.03 0.03
0.00 0.00 0.00 0.00 0.00 0.00 0.00 0.00 0.00 0.00 0.00 0.00 0.00 0.00 0.00 0.00 0.00 0.00 0.00 0.00 0.00 0.00 0.00 0.01 0.01 0.01 0.01 0.01 0.00 0.00 0.00 0.00 0.00 0.00 0.00 0.00 0.00 0.01 0.01 0.01 0.01 0.01 0.01
0.00 0.00 0.00 0.00 0.00 0.00 0.00 0.00 0.00 0.00 0.00 0.00 0.00 0.00 0.00 0.00 0.00 0.00 0.00 0.00 0.00 0.01 0.02 0.03 0.03 0.03 0.01 0.00 0.00 0.00 0.00 0.00 0.00 0.00 0.00 0.00 0.00 0.00 0.00 0.00 0.00 0.00 0.01
0.00 0.00 0.00 0.00 0.00 0.00 0.00 0.00 0.00 0.00 0.00 0.00 0.00 0.00 0.00 0.00 0.00 0.00 0.00 0.01 0.02 0.04 0.06 0.07 0.05 0.01 0.00 0.00 0.00 0.01 0.01 0.01 0.01 0.00 0.00 0.00 0.00 0.00 0.00 0.00 0.00 0.00 0.01
0.00 0.00 0.00 0.00 0.00 0.00 0.00 0.00 0.00 0.00 0.00 0.00 0.00 0.00 0.00 0.00 0.00 0.00 0.00 0.02 0.03 0.04 0.05 0.03 0.01 0.00 0.00 0.01 0.01 0.02 0.02 0.02 0.01 0.00 0.00 0.01 0.00 0.00 0.00 0.00 0.00 0.00 0.00
0.00 0.00 0.00 0.00 0.00 0.00 0.00 0.00 0.00 0.00 0.00 0.00 0.00 0.00 0.00 0.00 0.00 0.01 0.03 0.05 0.03 0.02 0.00 0.00 0.00 0.00 0.00 0.00 0.01 0.02 0.03 0.02 0.01 0.00 0.00 0.00 0.00 0.00 0.00 0.00 0.00 0.00 0.00
0.00 0.00 0.00 0.00 0.00 0.00 0.00 0.00 0.00 0.00 0.00 0.00 0.00 0.00 0.00 0.00 0.01 0.03 0.05 0.04 0.01 0.00 0.00 0.00 0.01 0.00 0.00 0.00 0.01 0.04 0.05 0.04 0.02 0.00 0.00 0.00 0.00 0.00 0.00 0.00 0.00 0.00 0.00
0.00 0.00 0.00 0.00 0.00 0.00 0.00 0.00 0.00 0.00 0.00 0.00 0.00 0.00 0.00 0.01 0.02 0.03 0.02 0.00 0.00 0.00 0.01 0.00 0.00 0.00 0.00 0.00 0.00 0.02 0.07 0.10 0.05 0.02 0.00 0.01 0.02 0.02 0.03 0.00 0.00 0.00 0.00
MSLP
1015.32 1015.51 1015.66 1015.79 1015.90 1016.00 1016.09 1016.17 1016.23 1016.26 1016.25 1016.20 1016.12 1016.01 1015.90 1015.77 1015.65 1015.53 1015.40 1015.24 1015.05 1014.81 1014.53 1014.22 1013.89 1013.55 1013.23 1012.95 1012.69 1012.48 1012.30 1012.14 1011.99 1011.85 1011.71 1011.57 1011.44 1011.30 1011.16 1011.03 1010.90 1010.79 1010.69
1015.39 1015.61 1015.79 1015.95 1016.11 1016.25 1016.38 1016.50 1016.57 1016.60 1016.58 1016.50 1016.39 1016.26 1016.11 1015.98 1015.86 1015.76 1015.67 1015.57 1015.44 1015.28 1015.08 1014.82 1014.53 1014.21 1013.87 1013.54 1013.22 1012.93 1012.66 1012.42 1012.20 1012.00 1011.81 1011.63 1011.44 1011.26 1011.07 1010.88 1010.69 1010.50 1010.34
1015.51 1015.74 1015.95 1016.16 1016.36 1016.55 1016.72 1016.86 1016.94 1016.97 1016.92 1016.82 1016.68 1016.51 1016.34 1016.19 1016.07 1015.98 1015.92 1015.87 1015.81 1015.73 1015.59 1015.40 1015.15 1014.85 1014.51 1014.14 1013.77 1013.40 1013.05 1012.73 1012.43 1012.17 1011.93 1011.70 1011.49 1011.27 1011.05 1010.82 1010.59 1010.36 1010.15
1015.67 1015.93 1016.17 1016.42 1016.66 1016.89 1017.10 1017.25 1017.35 1017.36 1017.30 1017.17 1016.99 1016.79 1016.59 1016.41 1016.28 1016.19 1016.15 1016.13 1016.11 1016.08 1016.00 1015.86 1015.65 1015.37 1015.03 1014.64 1014.23 1013.80 1013.38 1012.99 1012.63 1012.31 1012.02 1011.76 1011.52 1011.29 1011.05 1010.80 1010.55 1010.30 1010.06
1015.90 1016.18 1016.45 1016.73 1017.01 1017.28 1017.51 1017.68 1017.77 1017.78 1017.71 1017.56 1017.35 1017.12 1016.89 1016.69 1016.53 1016.42 1016.36 1016.33 1016.32 1016.30 1016.25 1016.14 1015.96 1015.70 1015.37 1014.97 1014.54 1014.07 1013.61 1013.16 1012.75 1012.39 1012.06 1011.78 1011.51 1011.27 1011.02 1010.77 1010.51 1010.25 1009.99
1016.18 1016.48 1016.77 1017.08 1017.39 1017.68 1017.92 1018.10 1018.20 1018.21 1018.13 1017.97 1017.76 1017.51 1017.26 1017.03 1016.83 1016.68 1016.57 1016.50 1016.46 1016.41 1016.34 1016.22 1016.04 1015.80 1015.48 1015.09 1014.65 1014.18 1013.70 1013.22 1012.78 1012.38 1012.03 1011.71 1011.43 1011.17 1010.92 1010.66 1010.40 1010.13 1009.86
1016.49 1016.80 1017.11 1017.44 1017.76 1018.06 1018.31 1018.51 1018.61 1018.63 1018.56 1018.41 1018.20 1017.96 1017.70 1017.44 1017.20 1016.99 1016.82 1016.67 1016.54 1016.42 1016.29 1016.14 1015.94 1015.69 1015.38 1015.01 1014.59 1014.13 1013.65 1013.17 1012.71 1012.29 1011.90 1011.56 1011.26 1010.98 1010.71 1010.44 1010.16 1009.88 1009.60
1016.80 1017.12 1017.44 1017.77 1018.10 1018.40 1018.66 1018.85 1018.97 1019.01 1018.96 1018.85 1018.67 1018.45 1018.20 1017.93 1017.65 1017.38 1017.11 1016.86 1016.62 1016.39 1016.17 1015.94 1015.70 1015.43 1015.13 1014.78 1014.38 1013.95 1013.49 1013.02 1012.56 1012.11 1011.70 1011.33 1010.98 1010.66 1010.36 1010.07 1009.77 1009.47 1009.18
1017.09 1017.41 1017.74 1018.06 1018.39 1018.68 1018.94 1019.13 1019.27 1019.33 1019.32 1019.25 1019.12 1018.94 1018.72 1018.46 1018.15 1017.82 1017.47 1017.10 1016.73 1016.38 1016.04 1015.72 1015.41 1015.10 1014.79 1014.45 1014.08 1013.68 1013.25 1012.79 1012.33 1011.87 1011.42 1011.00 1010.61 1010.24 1009.89 1009.55 1009.22 1008.90 1008.58
1017.36 1017.68 1018.00 1018.32 1018.62 1018.90 1019.15 1019.34 1019.48 1019.56 1019.60 1019.58 1019.52 1019.40 1019.22 1018.98 1018.66 1018.28 1017.85 1017.38 1016.89 1016.40 1015.94 1015.51 1015.12 1014.77 1014.43 1014.09 1013.74 1013.37 1012.96 1012.51 1012.04 1011.56 1011.08 1010.61 1010.15 1009.72 1009.31 1008.92 1008.55 1008.20 1007.86
1017.61 1017.93 1018.25 1018.55 1018.83 1019.08 1019.30 1019.48 1019.62 1019.72 1019.79 1019.83 1019.82 1019.76 1019.64 1019.43 1019.12 1018.72 1018.22 1017.67 1017.07 1016.47 1015.89 1015.36 1014.89 1014.47 1014.10 1013.75 1013.40 1013.03 1012.63 1012.19 1011.71 1011.20 1010.67 1010.15 1009.63 1009.13 1008.66 1008.22 1007.80 1007.41 1007.06
1017.85 1018.18 1018.48 1018.76 1019.01 1019.23 1019.41 1019.56 1019.69 1019.79 1019.88 1019.95 1020.00 1019.99 1019.92 1019.74 1019.46 1019.05 1018.53 1017.91 1017.24 1016.55 1015.88 1015.25 1014.70 1014.22 1013.80 1013.42 1013.05 1012.68 1012.27 1011.82 1011.32 1010.78 1010.21 1009.63 1009.05 1008.50 1007.97 1007.47 1007.02 1006.60 1006.22
1018.08 1018.41 1018.71 1018.96 1019.17 1019.35 1019.49 1019.60 1019.69 1019.78 1019.87 1019.96 1020.03 1020.06 1020.03 1019.89 1019.63 1019.23 1018.70 1018.06 1017.34 1016.59 1015.84 1015.15 1014.52 1013.98 1013.51 1013.09 1012.69 1012.29 1011.86 1011.39 1010.86 1010.29 1009.68 1009.06 1008.43 1007.82 1007.25 1006.71 1006.22 1005.78 1005.38
1018.31 1018.64 1018.92 1019.15 1019.32 1019.45 1019.54 1019.60 1019.65 1019.70 1019.77 1019.85 1019.92 1019.97 1019.95 1019.84 1019.60 1019.21 1018.69 1018.04 1017.31 1016.53 1015.75 1015.00 1014.32 1013.72 1013.20 1012.73 1012.28 1011.84 1011.38 1010.87 1010.32 1009.71 1009.07 1008.41 1007.76 1007.11 1006.51 1005.94 1005.43 1004.96 1004.54
1018.52 1018.85 1019.11 1019.31 1019.44 1019.52 1019.56 1019.56 1019.56 1019.57 1019.59 1019.64 1019.69 1019.72 1019.70 1019.59 1019.36 1019.00 1018.49 1017.85 1017.12 1016.33 1015.53 1014.76 1014.04 1013.39 1012.81 1012.29 1011.80 1011.31 1010.80 1010.26 1009.67 1009.04 1008.38 1007.70 1007.02 1006.36 1005.73 1005.14 1004.61 1004.12 1003.68
1018.70 1019.01 1019.25 1019.42 1019.52 1019.55 1019.54 1019.49 1019.43 1019.38 1019.35 1019.35 1019.36 1019.36 1019.31 1019.19 1018.96 1018.59 1018.10 1017.48 1016.76 1015.98 1015.18 1014.39 1013.65 1012.96 1012.34 1011.76 1011.22 1010.68 1010.13 1009.55 1008.93 1008.27 1007.59 1006.90 1006.20 1005.53 1004.88 1004.28 1003.73 1003.23 1002.77
1018.84 1019.13 1019.34 1019.47 1019.54 1019.53 1019.47 1019.38 1019.27 1019.17 1019.09 1019.02 1018.98 1018.92 1018.83 1018.67 1018.42 1018.05 1017.55 1016.94 1016.24 1015.48 1014.68 1013.89 1013.13 1012.42 1011.76 1011.14 1010.54 1009.96 1009.36 1008.74 1008.09 1007.42 1006.72 1006.01 1005.30 1004.62 1003.96 1003.34 1002.77 1002.25 1001.76
1018.93 1019.19 1019.37 1019.47 1019.50 1019.46 1019.37 1019.24 1019.09 1018.94 1018.81 1018.69 1018.58 1018.47 1018.32 1018.11 1017.81 1017.42 1016.91 1016.30 1015.61 1014.86 1014.08 1013.29 1012.52 1011.79 1011.10 1010.44 1009.80 1009.17 1008.54 1007.88 1007.20 1006.50 1005.78 1005.05 1004.33 1003.62 1002.94 1002.31 1001.71 1001.16 1000.65
1019.00 1019.22 1019.36 1019.43 1019.43 1019.36 1019.24 1019.08 1018.90 1018.72 1018.54 1018.37 1018.20 1018.02 1017.80 1017.53 1017.19 1016.75 1016.22 1015.61 1014.92 1014.17 1013.40 1012.62 1011.86 1011.12 1010.41 1009.72 1009.05 1008.38 1007.70 1007.00 1006.29 1005.55 1004.80 1004.05 1003.30 1002.56 1001.85 1001.18 1000.55 999.97 999.44
1019.06 1019.24 1019.35 1019.38 1019.34 1019.24 1019.10 1018.92 1018.71 1018.50 1018.28 1018.06 1017.84 1017.59 1017.31 1016.97 1016.57 1016.09 1015.53 1014.89 1014.20 1013.46 1012.70 1011.93 1011.18 1010.44 1009.72 1009.01 1008.31 1007.60 1006.89 1006.15 1005.40 1004.62 1003.83 1003.04 1002.24 1001.46 1000.71 1000.00 999.33 998.71 998.15
1019.14 1019.28 1019.34 1019.34 1019.27 1019.14 1018.96 1018.76 1018.53 1018.28 1018.03 1017.76 1017.48 1017.17 1016.82 1016.42 1015.96 1015.43 1014.83 1014.18 1013.48 1012.75 1012.00 1011.26 1010.52 1009.79 1009.07 1008.35 1007.63 1006.89 1006.14 1005.37 1004.56 1003.74 1002.90 1002.05 1001.20 1000.37 999.56 998.80 998.08 997.42 996.83
1019.25 1019.35 1019.38 1019.33 1019.22 1019.05 1018.84 1018.60 1018.33 1018.05 1017.76 1017.44 1017.11 1016.74 1016.33 1015.87 1015.35 1014.78 1014.15 1013.48 1012.78 1012.06 1011.33 1010.61 1009.89 1009.18 1008.47 1007.75 1007.02 1006.26 1005.48 1004.66 1003.81 1002.93 1002.03 1001.12 1000.21 999.32 998.45 997.62 996.85 996.14 995.50
1019.41 1019.47 1019.45 1019.35 1019.19 1018.98 1018.72 1018.43 1018.12 1017.79 1017.45 1017.09 1016.70 1016.28 1015.81 1015.30 1014.73 1014.12 1013.47 1012.79 1012.09 1011.39 1010.69 1010.00 1009.31 1008.63 1007.93 1007.22 1006.48 1005.70 1004.88 1004.02 1003.12 1002.19 1001.23 1000.26 999.29 998.33 997.40 996.50 995.67 994.89 994.20
1019.59 1019.61 1019.54 1019.40 1019.18 1018.90 1018.58 1018.23 1017.87 1017.48 1017.09 1016.67 1016.23 1015.76 1015.25 1014.69 1014.09 1013.46 1012.79 1012.11 1011.43 1010.75 1010.08 1009.42 1008.77 1008.11 1007.43 1006.73 1005.98 1005.19 1004.34 1003.44 1002.50 1001.52 1000.51 999.48 998.45 997.43 996.43 995.47 994.56 993.71 992.95
1019.76 1019.75 1019.63 1019.42 1019.14 1018.79 1018.41 1017.99 1017.56 1017.12 1016.67 1016.20 1015.71 1015.20 1014.65 1014.06 1013.44 1012.80 1012.13 1011.46 1010.80 1010.15 1009.51 1008.88 1008.26 1007.62 1006.96 1006.26 1005.51 1004.70 1003.82 1002.89 1001.91 1000.88 999.83 998.75 997.67 996.60 995.54 994.52 993.53 992.60 991.73
1019.90 1019.84 1019.67 1019.40 1019.05 1018.64 1018.18 1017.70 1017.21 1016.71 1016.21 1015.70 1015.17 1014.63 1014.06 1013.45 1012.83 1012.18 1011.52 1010.87 1010.22 1009.60 1008.99 1008.39 1007.78 1007.16 1006.50 1005.80 1005.03 1004.20 1003.30 1002.34 1001.32 1000.26 999.17 998.06 996.95 995.83 994.72 993.63 992.56 991.53 990.55
Thickness
5672 5670 5668 5666 5664 5662 5659 5655 5652 5652 5651 5649 5647 5646 5645 5643 5641 5639 5637 5636 5636 5636 5636 5636 5637 5637 5637 5638 5638 5639 5640 5641 5643 5644 5645 5646 5647 5647 5648 5649 5651 5652 5653
5666 5663 5661 5658 5655 5653 5652 5648 5645 5644 5643 5641 5639 5637 5636 5633 5631 5629 5627 5626 5625 5624 5624 5624 5625 5625 5625 5626 5627 5627 5627 5629 5630 5631 5632 5633 5633 5634 5635 5637 5639 5640 5642
5659 5657 5653 5649 5646 5645 5644 5641 5638 5638 5636 5633 5630 5628 5626 5623 5621 5619 5617 5615 5614 5613 5612 5611 5612 5613 5613 5614 5614 5615 5615 5615 5615 5616 5617 5618 5619 5619 5621 5622 5624 5626 5628
5652 5649 5645 5641 5638 5637 5636 5633 5631 5629 5626 5623 5620 5618 5616 5613 5611 5609 5607 5605 5603 5601 5600 5599 5598 5599 5599 5600 5600 5600 5600 5600 5600 5600 5601 5602 5603 5604 5605 5607 5608 5610 5613
5644 5641 5637 5633 5631 5630 5627 5624 5621 5618 5614 5611 5611 5610 5606 5604 5602 5600 5598 5596 5593 5591 5589 5586 5585 5584 5584 5585 5584 5584 5585 5584 5584 5585 5585 5584 5585 5586 5588 5590 5592 5594 5596
5636 5633 5629 5626 5624 5621 5616 5614 5611 5608 5604 5600 5600 5600 5598 5596 5593 5592 5589 5586 5583 5580 5577 5574 5572 5570 5569 5568 5567 5568 5568 5569 5569 5568 5567 5567 5568 5570 5572 5574 5576 5578 5579
5628 5626 5621 5618 5615 5610 5605 5603 5601 5597 5592 5589 5587 5587 5587 5587 5585 5583 5579 5575 5571 5568 5564 5560 5557 5555 5553 5552 5550 5550 5551 5551 5552 5551 5551 5551 5552 5553 5554 5556 5558 5560 5562
5620 5617 5613 5609 5605 5600 5596 5592 5588 5583 5579 5576 5572 5571 5569 5572 5572 5572 5566 5563 5559 5555 5549 5544 5541 5539 5538 5537 5534 5534 5533 5533 5533 5533 5533 5534 5534 5535 5535 5536 5538 5540 5543
5611 5608 5604 5600 5595 5590 5584 5579 5575 5571 5565 5562 5559 5556 5553 5550 5553 5559 5556 5550 5545 5538 5533 5529 5527 5524 5523 5522 5520 5519 5518 5517 5515 5515 5515 5515 5515 5515 5514 5515 5515 5517 5519
5600 5598 5594 5590 5584 5579 5573 5568 5563 5558 5553 5548 5545 5541 5537 5533 5530 5538 5544 5539 5534 5527 5522 5518 5514 5512 5510 5508 5505 5503 5501 5500 5497 5495 5494 5492 5491 5490 5490 5490 5490 5492 5493
5591 5588 5584 5579 5573 5567 5561 5556 5550 5545 5540 5536 5531 5527 5522 5517 5512 5508 5517 5522 5519 5514 5509 5505 5502 5499 5496 5492 5489 5485 5482 5479 5477 5473 5470 5468 5466 5464 5463 5461 5461 5461 5462
5580 5577 5572 5567 5561 5555 5550 5544 5539 5533 5528 5523 5518 5512 5507 5502 5497 5491 5492 5499 5502 5502 5498 5495 5490 5484 5479 5474 5469 5464 5460 5456 5452 5448 5444 5441 5438 5436 5433 5430 5429 5428 5428
5569 5565 5561 5555 5550 5545 5539 5534 5528 5522 5517 5511 5505 5499 5493 5487 5481 5475 5472 5477 5482 5487 5485 5480 5472 5464 5458 5451 5444 5437 5432 5427 5421 5416 5412 5407 5403 5399 5396 5394 5392 5392 5392
5559 5554 5549 5544 5539 5534 5529 5523 5517 5512 5506 5500 5494 5487 5480 5474 5467 5460 5452 5450 5458 5467 5463 5459 5452 5442 5430 5420 5413 5406 5399 5391 5385 5379 5373 5368 5363 5359 5356 5354 5354 5355 5356
5549 5544 5538 5533 5528 5523 5518 5513 5507 5501 5495 5488 5482 5475 5467 5461 5453 5444 5435 5426 5421 5431 5445 5441 5429 5419 5404 5391 5380 5369 5360 5351 5344 5338 5333 5328 5325 5322 5321 5322 5324 5327 5329
5539 5534 5528 5523 5518 5513 5508 5502 5496 5490 5483 5477 5470 5463 5455 5447 5438 5429 5420 5412 5402 5398 5407 5416 5407 5396 5380 5362 5346 5331 5318 5308 5300 5294 5291 5291 5292 5294 5297 5302 5306 5310 5313
5530 5524 5518 5513 5507 5502 5496 5491 5484 5478 5472 5464 5457 5450 5441 5434 5425 5416 5407 5398 5388 5378 5379 5390 5382 5371 5354 5335 5319 5302 5286 5275 5267 5263 5261 5262 5265 5270 5276 5282 5289 5295 5299
5520 5515 5508 5502 5496 5491 5485 5479 5472 5466 5458 5450 5443 5435 5427 5421 5413 5403 5393 5382 5372 5360 5350 5352 5354 5340 5325 5306 5292 5279 5267 5255 5247 5244 5243 5244 5248 5252 5258 5265 5273 5279 5284
5510 5504 5498 5491 5485 5479 5474 5467 5460 5453 5444 5435 5427 5419 5413 5406 5398 5388 5377 5366 5354 5343 5328 5316 5313 5305 5297 5283 5272 5264 5254 5246 5239 5235 5234 5235 5238 5243 5249 5255 5261 5267 5271
5499 5492 5486 5479 5473 5467 5461 5455 5448 5439 5430 5421 5413 5406 5399 5390 5382 5373 5362 5350 5336 5322 5307 5294 5287 5281 5275 5267 5257 5253 5252 5245 5239 5233 5233 5235 5237 5240 5245 5249 5254 5258 5261
5488 5480 5473 5467 5461 5455 5449 5442 5435 5428 5417 5408 5400 5392 5384 5377 5368 5356 5345 5331 5314 5299 5288 5280 5273 5267 5261 5256 5252 5248 5248 5248 5245 5236 5239 5241 5239 5241 5242 5244 5247 5251 5254
5475 5468 5462 5455 5448 5442 5436 5431 5424 5415 5405 5396 5388 5380 5371 5361 5350 5340 5325 5310 5293 5278 5270 5265 5259 5255 5254 5249 5247 5245 5243 5244 5250 5245 5241 5246 5241 5245 5246 5246 5248 5250 5252
5463 5457 5450 5443 5435 5428 5424 5418 5412 5404 5393 5383 5374 5366 5357 5344 5330 5318 5307 5295 5280 5266 5258 5254 5252 5250 5248 5247 5245 5245 5243 5242 5243 5243 5242 5250 5248 5249 5249 5249 5250 5253 5255
5453 5445 5438 5431 5423 5417 5412 5407 5401 5392 5380 5370 5359 5348 5337 5326 5311 5301 5293 5282 5269 5260 5255 5251 5248 5247 5247 5246 5244 5243 5244 5246 5247 5244 5242 5247 5251 5251 5253 5251 5252 5256 5260
5441 5433 5426 5419 5412 5405 5399 5394 5388 5378 5367 5356 5344 5331 5318 5308 5297 5287 5278 5270 5264 5259 5254 5251 5248 5247 5246 5245 5243 5243 5243 5243 5249 5251 5245 5243 5248 5251 5253 5254 5258 5262 5266
5429 5422 5415 5407 5399 5392 5387 5381 5374 5365 5356 5346 5331 5315 5299 5288 5279 5271 5265 5260 5257 5256 5255 5253 5248 5246 5245 5244 5243 5239 5236 5238 5244 5249 5250 5244 5245 5245 5256 5261 5263 5265 5269